| time (UTC) | temp F | wind direction | speed MPH | gust MPH | rain 1hr in | rain 24hr in | rain mn in | humidity % | barometer mb |
| 20260902031803 | 68 | 198 | 1.0 | 7.0 | 0.00 | 0.01 | 0.01 | 44 | |
| 20260902030903 | 69 | 203 | 2.0 | 6.0 | 0.00 | 0.01 | 0.01 | 43 | |
| 20260902030003 | 69 | 216 | 1.0 | 4.0 | 0.00 | 0.01 | 0.01 | 42 | |
| 20260902025612 | 69 | 216 | 1.0 | 6.0 | 0.00 | 0.01 | 0.01 | 41 | |
| 20260902024714 | 70 | 197 | 3.0 | 6.0 | 0.00 | 0.01 | 0.01 | 40 | |
| 20260902023603 | 71 | 195 | 3.0 | 9.0 | 0.00 | 0.01 | 0.01 | 39 | |
| 20260902022703 | 72 | 179 | 5.0 | 10.0 | 0.00 | 0.01 | 0.01 | 38 | |
| 20260902021803 | 72 | 186 | 5.0 | 12.0 | 0.00 | 0.02 | 0.01 | 38 | |
| 20260902020903 | 72 | 190 | 5.0 | 13.0 | 0.00 | 0.02 | 0.01 | 37 | |
| 20260902020003 | 73 | 189 | 5.0 | 11.0 | 0.00 | 0.02 | 0.01 | 36 | |
| 20260902015403 | 73 | 193 | 6.0 | 12.0 | 0.00 | 0.03 | 0.01 | 36 | |
| 20260902014503 | 74 | 194 | 8.0 | 17.0 | 0.00 | 0.04 | 0.01 | 35 | |
| 20260902013603 | 75 | 192 | 8.0 | 16.0 | 0.00 | 0.05 | 0.01 | 34 | |
| 20260902012703 | 75 | 182 | 8.0 | 16.0 | 0.00 | 0.05 | 0.01 | 34 | |
| 20260902011803 | 76 | 185 | 10.0 | 23.0 | 0.00 | 0.05 | 0.01 | 32 | |
| 20260902010903 | 76 | 188 | 10.0 | 24.0 | 0.00 | 0.05 | 0.01 | 31 | |
| 20260902010003 | 77 | 180 | 11.0 | 26.0 | 0.00 | 0.05 | 0.01 | 30 | |
| 20260902005403 | 77 | 181 | 11.0 | 24.0 | 0.00 | 0.05 | 0.01 | 31 | |
| 20260902004503 | 78 | 181 | 12.0 | 26.0 | 0.00 | 0.05 | 0.01 | 31 | |
| 20260902003603 | 78 | 185 | 13.0 | 26.0 | 0.00 | 0.05 | 0.01 | 31 | |
| 20260902002703 | 78 | 181 | 12.0 | 22.0 | 0.00 | 0.05 | 0.01 | 33 | |
| 20260902001803 | 78 | 181 | 12.0 | 25.0 | 0.00 | 0.05 | 0.01 | 33 | |
| 20260902000904 | 79 | 177 | 11.0 | 22.0 | 0.00 | 0.05 | 0.01 | 34 | |
| 20260902000003 | 79 | 173 | 11.0 | 20.0 | 0.00 | 0.05 | 0.01 | 33 | |
| 20260901235403 | 79 | 180 | 14.0 | 28.0 | 0.00 | 0.05 | 0.01 | 35 | |
| 20260901234503 | 79 | 183 | 14.0 | 32.0 | 0.00 | 0.05 | 0.01 | 35 | |
| 20260901233603 | 79 | 183 | 15.0 | 30.0 | 0.00 | 0.05 | 0.01 | 35 | |
| 20260901232703 | 80 | 186 | 13.0 | 29.0 | 0.00 | 0.05 | 0.01 | 35 | |
| 20260901231803 | 80 | 181 | 15.0 | 28.0 | 0.00 | 0.05 | 0.01 | 36 | |
| 20260901230903 | 80 | 178 | 11.0 | 22.0 | 0.00 | 0.05 | 0.01 | 36 | |
| 20260901230004 | 80 | 168 | 9.0 | 24.0 | 0.00 | 0.05 | 0.01 | 35 | |
| 20260901225403 | 80 | 144 | 9.0 | 17.0 | 0.00 | 0.05 | 0.01 | 38 | |
| 20260901224503 | 80 | 149 | 8.0 | 18.0 | 0.00 | 0.05 | 0.01 | 38 | |
| 20260901223603 | 80 | 163 | 9.0 | 18.0 | 0.00 | 0.05 | 0.01 | 38 | |
| 20260901222703 | 80 | 162 | 8.0 | 15.0 | 0.00 | 0.05 | 0.01 | 37 | |
| 20260901221803 | 80 | 162 | 8.0 | 20.0 | 0.00 | 0.05 | 0.01 | 40 | |
| 20260901220903 | 79 | 168 | 9.0 | 18.0 | 0.00 | 0.05 | 0.01 | 37 | |
| 20260901220003 | 79 | 162 | 9.0 | 19.0 | 0.00 | 0.05 | 0.01 | 38 | |
| 20260901215403 | 79 | 159 | 8.0 | 17.0 | 0.00 | 0.05 | 0.01 | 39 | |
| 20260901214503 | 79 | 192 | 9.0 | 20.0 | 0.00 | 0.05 | 0.01 | 39 | |
| 20260901213813 | 79 | 188 | 10.0 | 20.0 | 0.00 | 0.05 | 0.01 | 40 | |
| 20260901212703 | 79 | 195 | 9.0 | 22.0 | 0.00 | 0.05 | 0.01 | 40 | |
| 20260901211803 | 80 | 185 | 8.0 | 18.0 | 0.00 | 0.05 | 0.01 | 38 | |
| 20260901211113 | 80 | 182 | 9.0 | 19.0 | 0.00 | 0.05 | 0.01 | 39 | |
| 20260901210004 | 79 | 175 | 9.0 | 20.0 | 0.00 | 0.05 | 0.01 | 38 | |
| 20260901205403 | 79 | 184 | 11.0 | 21.0 | 0.00 | 0.05 | 0.01 | 40 | |
| 20260901204503 | 79 | 192 | 11.0 | 23.0 | 0.00 | 0.05 | 0.01 | 42 | |
| 20260901203603 | 79 | 187 | 10.0 | 23.0 | 0.00 | 0.05 | 0.01 | 40 | |
| 20260901202703 | 78 | 187 | 10.0 | 23.0 | 0.00 | 0.05 | 0.01 | 40 | |
| 20260901201803 | 78 | 180 | 12.0 | 26.0 | 0.00 | 0.05 | 0.01 | 44 | |
| 20260901200903 | 78 | 183 | 9.0 | 26.0 | 0.00 | 0.05 | 0.01 | 40 | |
| 20260901200003 | 77 | 185 | 12.0 | 24.0 | 0.00 | 0.05 | 0.01 | 44 | |
| 20260901195403 | 77 | 188 | 12.0 | 22.0 | 0.00 | 0.05 | 0.01 | 40 | |
| 20260901194503 | 76 | 170 | 11.0 | 26.0 | 0.00 | 0.05 | 0.01 | 44 | |
| 20260901193604 | 76 | 170 | 12.0 | 23.0 | 0.00 | 0.05 | 0.01 | 47 | |
| 20260901192703 | 76 | 184 | 12.0 | 22.0 | 0.00 | 0.05 | 0.01 | 44 | |
| 20260901191803 | 76 | 172 | 10.0 | 22.0 | 0.00 | 0.05 | 0.01 | 47 | |
| 20260901190903 | 76 | 163 | 10.0 | 22.0 | 0.00 | 0.05 | 0.01 | 46 | |
| 20260901190214 | 76 | 159 | 10.0 | 21.0 | 0.00 | 0.05 | 0.01 | 48 | |
| 20260901185403 | 75 | 145 | 7.0 | 16.0 | 0.00 | 0.05 | 0.01 | 48 | |
| 20260901184503 | 74 | 148 | 7.0 | 15.0 | 0.00 | 0.05 | 0.01 | 51 | |
| 20260901183603 | 74 | 167 | 9.0 | 19.0 | 0.00 | 0.05 | 0.01 | 52 | |
| 20260901182703 | 72 | 180 | 9.0 | 18.0 | 0.00 | 0.05 | 0.01 | 51 | |
| 20260901181803 | 74 | 157 | 9.0 | 18.0 | 0.00 | 0.05 | 0.01 | 48 | |
| 20260901180903 | 73 | 169 | 8.0 | 18.0 | 0.00 | 0.05 | 0.01 | 53 | |
| 20260901180004 | 72 | 175 | 8.0 | 18.0 | 0.00 | 0.05 | 0.01 | 59 | |
| 20260901175403 | 71 | 179 | 8.0 | 17.0 | 0.00 | 0.05 | 0.01 | 59 | |
| 20260901174503 | 72 | 186 | 8.0 | 16.0 | 0.00 | 0.05 | 0.01 | 57 | |
| 20260901173603 | 73 | 185 | 9.0 | 19.0 | 0.00 | 0.05 | 0.01 | 56 | |
| 20260901172703 | 72 | 177 | 9.0 | 22.0 | 0.00 | 0.05 | 0.01 | 55 | |
| 20260901172012 | 72 | 192 | 9.0 | 19.0 | 0.00 | 0.05 | 0.01 | 56 | |
| 20260901170903 | 71 | 214 | 6.0 | 15.0 | 0.00 | 0.05 | 0.01 | 63 | |
| 20260901170213 | 71 | 207 | 7.0 | 16.0 | 0.00 | 0.05 | 0.01 | 62 | |
| 20260901165403 | 70 | 199 | 5.0 | 15.0 | 0.00 | 0.05 | 0.01 | 65 | |
| 20260901164503 | 69 | 206 | 6.0 | 18.0 | 0.00 | 0.05 | 0.01 | 67 | |
| 20260901163603 | 68 | 210 | 6.0 | 15.0 | 0.00 | 0.05 | 0.01 | 69 | |
| 20260901162703 | 66 | 203 | 6.0 | 12.0 | 0.00 | 0.05 | 0.01 | 72 | |
| 20260901161803 | 66 | 192 | 7.0 | 13.0 | 0.00 | 0.05 | 0.01 | 70 | |
| 20260901160903 | 66 | 188 | 6.0 | 12.0 | 0.00 | 0.05 | 0.01 | 71 | |
| 20260901160213 | 66 | 184 | 4.0 | 9.0 | 0.00 | 0.05 | 0.01 | 72 | |
| 20260901155612 | 65 | 184 | 5.0 | 10.0 | 0.00 | 0.05 | 0.01 | 72 | |
| 20260901154503 | 65 | 178 | 6.0 | 12.0 | 0.00 | 0.05 | 0.01 | 72 | |
| 20260901153603 | 65 | 197 | 5.0 | 10.0 | 0.00 | 0.05 | 0.01 | 71 | |
| 20260901152703 | 66 | 182 | 5.0 | 10.0 | 0.00 | 0.05 | 0.01 | 69 | |
| 20260901151803 | 66 | 162 | 4.0 | 11.0 | 0.00 | 0.05 | 0.01 | 70 | |
| 20260901150903 | 66 | 191 | 4.0 | 12.0 | 0.00 | 0.05 | 0.01 | 71 | |
| 20260901150003 | 65 | 169 | 4.0 | 8.0 | 0.00 | 0.05 | 0.01 | 71 | |
| 20260901145612 | 65 | 164 | 3.0 | 8.0 | 0.00 | 0.05 | 0.01 | 72 | |
| 20260901144503 | 64 | 146 | 5.0 | 11.0 | 0.00 | 0.05 | 0.01 | 73 | |
| 20260901143603 | 63 | 157 | 4.0 | 10.0 | 0.00 | 0.05 | 0.01 | 74 | |
| 20260901142703 | 62 | 171 | 4.0 | 5.0 | 0.00 | 0.05 | 0.01 | 76 | |
| 20260901134503 | 60 | 136 | 1.0 | 5.0 | 0.00 | 0.05 | 0.01 | 78 | |
| 20260901133603 | 60 | 134 | 2.0 | 4.0 | 0.00 | 0.05 | 0.01 | 78 | |
| 20260901132703 | 60 | 138 | 2.0 | 4.0 | 0.00 | 0.05 | 0.01 | 77 | |
| 20260901131803 | 60 | 128 | 2.0 | 5.0 | 0.00 | 0.05 | 0.01 | 77 | |
| 20260901130903 | 60 | 128 | 2.0 | 5.0 | 0.00 | 0.05 | 0.01 | 77 | |
| 20260901130003 | 60 | 141 | 3.0 | 6.0 | 0.00 | 0.05 | 0.01 | 78 | |
| 20260901125612 | 60 | 144 | 3.0 | 7.0 | 0.00 | 0.05 | 0.01 | 78 | |
| 20260901124503 | 59 | 142 | 3.0 | 7.0 | 0.00 | 0.05 | 0.01 | 80 | |
| 20260901123603 | 59 | 141 | 3.0 | 9.0 | 0.00 | 0.05 | 0.01 | 83 | |
| 20260901122703 | 57 | 132 | 2.0 | 5.0 | 0.00 | 0.05 | 0.01 | 85 | |
| 20260901121803 | 56 | 155 | 0.0 | 4.0 | 0.00 | 0.05 | 0.01 | 86 | |
| 20260901121113 | 55 | 0 | 0.0 | 0.0 | 0.00 | 0.05 | 0.01 | 86 | |
| 20260901120003 | 55 | 0 | 0.0 | 0.0 | 0.00 | 0.05 | 0.01 | 86 | |
| 20260901115403 | 55 | 0 | 0.0 | 0.0 | 0.00 | 0.05 | 0.01 | 86 | |
| 20260901114713 | 55 | 0 | 0.0 | 0.0 | 0.00 | 0.05 | 0.01 | 87 | |
| 20260901113813 | 54 | 0 | 0.0 | 0.0 | 0.00 | 0.05 | 0.01 | 87 | |
| 20260901112912 | 52 | 0 | 0.0 | 0.0 | 0.00 | 0.05 | 0.01 | 87 | |
| 20260901111803 | 51 | 0 | 0.0 | 0.0 | 0.00 | 0.05 | 0.01 | 85 | |
| 20260901110903 | 51 | 0 | 0.0 | 0.0 | 0.00 | 0.05 | 0.01 | 85 | |
| 20260901110003 | 51 | 0 | 0.0 | 0.0 | 0.00 | 0.05 | 0.01 | 84 | |
| 20260901105403 | 52 | 0 | 0.0 | 0.0 | 0.00 | 0.05 | 0.01 | 84 | |
| 20260901104713 | 52 | 0 | 0.0 | 0.0 | 0.00 | 0.05 | 0.01 | 83 | |
| 20260901103603 | 53 | 287 | 0.0 | 3.0 | 0.00 | 0.05 | 0.01 | 82 | |
| 20260901102703 | 54 | 287 | 2.0 | 5.0 | 0.00 | 0.05 | 0.01 | 81 | |
| 20260901101803 | 55 | 276 | 2.0 | 6.0 | 0.00 | 0.05 | 0.01 | 81 | |
| 20260901100903 | 56 | 140 | 0.0 | 1.0 | 0.00 | 0.05 | 0.01 | 81 | |
| 20260901100003 | 56 | 140 | 0.0 | 3.0 | 0.00 | 0.05 | 0.01 | 81 | |
| 20260901095403 | 57 | 140 | 0.0 | 3.0 | 0.00 | 0.05 | 0.01 | 81 | |
| 20260901094503 | 57 | 155 | 2.0 | 8.0 | 0.00 | 0.05 | 0.01 | 82 | |
| 20260901093603 | 57 | 179 | 4.0 | 8.0 | 0.00 | 0.05 | 0.01 | 83 | |
| 20260901092703 | 57 | 197 | 4.0 | 7.0 | 0.00 | 0.05 | 0.01 | 86 | |
| 20260901091803 | 56 | 209 | 4.0 | 10.0 | 0.00 | 0.05 | 0.01 | 87 | |
| 20260901090903 | 54 | 205 | 3.0 | 6.0 | 0.00 | 0.05 | 0.01 | 88 | |
| 20260901090003 | 54 | 203 | 0.0 | 4.0 | 0.00 | 0.05 | 0.01 | 88 | |
| 20260901085613 | 54 | 206 | 0.0 | 4.0 | 0.00 | 0.05 | 0.01 | 88 | |
| 20260901084503 | 53 | 225 | 2.0 | 6.0 | 0.00 | 0.05 | 0.01 | 88 | |
| 20260901083603 | 53 | 249 | 1.0 | 3.0 | 0.00 | 0.05 | 0.01 | 88 | |
| 20260901082913 | 53 | 249 | 1.0 | 3.0 | 0.00 | 0.05 | 0.01 | 88 | |
| 20260901081803 | 53 | 239 | 4.0 | 7.0 | 0.00 | 0.05 | 0.01 | 88 | |
| 20260901080903 | 53 | 201 | 2.0 | 5.0 | 0.00 | 0.05 | 0.01 | 88 | |
| 20260901080213 | 54 | 189 | 1.0 | 5.0 | 0.00 | 0.05 | 0.01 | 88 | |
| 20260901075403 | 53 | 188 | 1.0 | 3.0 | 0.00 | 0.05 | 0.01 | 88 | |
| 20260901074503 | 53 | 188 | 0.0 | 3.0 | 0.00 | 0.05 | 0.01 | 87 | |
| 20260901073603 | 53 | 188 | 0.0 | 1.0 | 0.01 | 0.05 | 0.01 | 87 | |
| 20260901072703 | 53 | 0 | 0.0 | 0.0 | 0.01 | 0.05 | 0.01 | 87 | |
| 20260901071803 | 53 | 188 | 0.0 | 1.0 | 0.01 | 0.05 | 0.01 | 87 | |
| 20260901070903 | 53 | 188 | 0.0 | 2.0 | 0.01 | 0.05 | 0.01 | 87 | |
| 20260901070003 | 53 | 0 | 0.0 | 0.0 | 0.01 | 0.05 | 0.01 | 86 | |
| 20260901065403 | 53 | 0 | 0.0 | 0.0 | 0.01 | 0.05 | 0.01 | 86 | |
| 20260901064503 | 53 | 0 | 0.0 | 0.0 | 0.01 | 0.05 | 0.01 | 86 | |
| 20260901063603 | 53 | 0 | 0.0 | 0.0 | 0.00 | 0.04 | 0.00 | 86 | |
| 20260901062703 | 53 | 189 | 0.0 | 2.0 | 0.00 | 0.04 | 0.00 | 85 | |
| 20260901061803 | 54 | 188 | 1.0 | 2.0 | 0.00 | 0.04 | 0.00 | 85 | |
| 20260901060903 | 54 | 188 | 0.0 | 3.0 | 0.00 | 0.04 | 0.00 | 85 | |
| 20260901060008 | 54 | 188 | 0.0 | 2.0 | 0.00 | 0.04 | 0.00 | 84 | |
| 20260901055403 | 54 | 188 | 0.0 | 2.0 | 0.00 | 0.04 | 0.04 | 84 | |
| 20260901054713 | 54 | 0 | 0.0 | 0.0 | 0.00 | 0.04 | 0.04 | 84 | |
| 20260901053813 | 55 | 188 | 0.0 | 2.0 | 0.00 | 0.04 | 0.04 | 84 | |
| 20260901052703 | 55 | 188 | 1.0 | 4.0 | 0.00 | 0.04 | 0.04 | 83 | |
| 20260901051803 | 55 | 188 | 2.0 | 6.0 | 0.00 | 0.04 | 0.04 | 82 | |
| 20260901050903 | 56 | 181 | 2.0 | 7.0 | 0.00 | 0.04 | 0.04 | 81 | |
| 20260901050003 | 56 | 176 | 2.0 | 4.0 | 0.00 | 0.04 | 0.04 | 80 | |
| 20260901045403 | 57 | 177 | 2.0 | 9.0 | 0.00 | 0.04 | 0.04 | 79 | |
| 20260901044505 | 57 | 150 | 3.0 | 9.0 | 0.00 | 0.04 | 0.04 | 78 | |
| 20260901043603 | 57 | 91 | 2.0 | 7.0 | 0.00 | 0.04 | 0.04 | 76 | |
| 20260901042703 | 57 | 34 | 2.0 | 13.0 | 0.00 | 0.04 | 0.04 | 76 | |
| 20260901041803 | 57 | 4 | 3.0 | 13.0 | 0.00 | 0.04 | 0.04 | 77 | |
| 20260901040903 | 56 | 21 | 4.0 | 13.0 | 0.00 | 0.04 | 0.04 | 80 | |
| 20260901040003 | 56 | 15 | 6.0 | 15.0 | 0.00 | 0.04 | 0.04 | 81 | |
| 20260901035613 | 56 | 5 | 7.0 | 15.0 | 0.00 | 0.04 | 0.04 | 81 | |
| 20260901034503 | 56 | 350 | 6.0 | 12.0 | 0.00 | 0.04 | 0.04 | 81 | |
| 20260901033603 | 56 | 359 | 3.0 | 9.0 | 0.00 | 0.04 | 0.04 | 81 | |
| 20260901032703 | 56 | 8 | 5.0 | 15.0 | 0.00 | 0.04 | 0.04 | 80 |